Simultaneous Nadir Overpasses (SNOs) Predictions

Prediction of SNOs between LANDSAT-8 and METOP-B Satellite Orbit:

Table of predicted SNOs for the next 14.0 days since TLE Epoch: 1/7/2023
Index Date (LANDSAT-8) Time (LANDSAT-8) Lat,Lon (LANDSAT-8) SZA (LANDSAT-8 ) Date (METOP-B) Time (METOP-B) Lat,Lon (METOP-B) SZA (METOP-B ) Distance(km) Time Diff (sec)
1 01/09/2023 13:17:55 -81.12,-159.78 75.05 01/09/2023 13:17:36 -81.12,-159.67 75.04 2.05 19
2 01/09/2023 14:07:20 81.14, 8.28 105.01 01/09/2023 14:08:15 81.15, 8.36 105.04 1.36 55
3 01/12/2023 08:52:08 -81.11, -93.44 75.52 01/12/2023 08:51:58 -81.11, -93.61 75.54 2.91 10
4 01/12/2023 09:41:33 81.14, 74.59 104.54 01/12/2023 09:42:36 81.15, 74.76 104.58 3.12 63
5 01/15/2023 03:37:36 79.84, 151.92 101.80 01/15/2023 03:36:23 80.20, 150.27 102.01 50.48 73
6 01/15/2023 04:26:21 -81.12, -26.92 76.02 01/15/2023 04:26:19 -81.12, -26.88 76.01 1.01 2
7 01/15/2023 05:15:46 81.14, 141.09 104.04 01/15/2023 05:16:58 81.14, 141.09 104.07 0.43 72
8 01/17/2023 23:11:07 81.11,-128.23 103.42 01/17/2023 23:10:01 81.10,-128.28 103.39 0.86 66
9 01/18/2023 00:00:33 -81.13, 39.79 76.54 01/18/2023 00:00:40 -81.13, 39.79 76.54 0.26 7
10 01/20/2023 18:45:18 81.11, -61.71 102.82 01/20/2023 18:44:21 81.11, -61.71 102.80 0.21 57



Historial Predications of SNOs between LANDSAT-8 and METOP-B
